User: anonymous   Login
Location: Unspecified
(0.0000°N, 0.0000°E)
Time: 10:22:10
(UTC+00:00)
Language:

SES 6 - Orbit

View from above orbital plane
View from above orbital plane
View from above satellite
View from above satellite

Ground track
Ground track

The orbit data is extracted from the following two-line orbital elements,

1 39172U 13026A   16274.19886369 -.00000285  00000-0  00000+0 0  9999
2 39172   0.0456 356.5410 0001857 202.7134 201.1970  1.00269945 12169
Epoch (UTC): 30 September 2016 04:46:21
Eccentricity: 0.0001857
inclination: 0.0456°
perigee height: 35779 km
apogee height: 35794 km
right ascension of ascending node: 356.5410°
argument of perigee: 202.7134°
revolutions per day: 1.00269945
mean anomaly at epoch: 201.1970°
orbit number at epoch: 1216

The dashed part of the orbit path shows where the satellite is in the earth's shadow,  

DLR